Search for airport 
image banner adimage banner adimage banner ad
image banner ad

KWMC - Winnemucca Muni

Located in Winnemucca, United States

ICAO - WMC, IATA - WMC

Data provided by Airmate  

General information

Coordinates: N40°53'48" W117°48'21"
Elevation is 4308 feet MSL.
Magnetic variation is 16° East
View others Airports in Nevada

Operational data

Special qualification required
Current time UTC:
Current local time:
Weather
METAR: KWMC 130956Z AUTO 12006KT 10SM CLR 11/01 A2997 RMK AO2 SLP104 T01110011
TAF: KWMC 130520Z 1306/1406 VRB05KT P6SM FEW200 FM132100 22010G20KT P6SM SKC FM140300 VRB06KT P6SM SKC
View NOTAMs / SUP AIP / TFR affecting this airport [VIEW]
Communications frequencies: [VIEW]

Runways:

RWY identifierQFULength (ft)Width (ft)SurfaceLDA (ft)
0240°480075ASPH
20220°480075ASPH
14160°7000100ASPH
32340°7000100ASPH

Airport contact information

Address: Winnemucca United States

Satellite view of KWMC